Regional Weather Roundup
Issued by NWS Goodland, KS

Home | Current Version | Previous Version | Graphics & Text | Print | Product List | Glossary On
Versions: 1 2 3 4 5 6 7 8 9 10 11 12 13 14 15 16 17 18 19 20 21 22 23 24 25 26 27 28 29 30 31 32 33 34 35 36 37 38 39 40 41 42 43 44 45 46 47 48 49 50
000
ASUS43 KGLD 230559
RWRGLD

GOODLAND FORECAST AREA HOURLY WEATHER ROUNDUP
NATIONAL WEATHER SERVICE GOODLAND KS
1200 AM MDT WED AUG 23 2017

...OFFICIAL OBSERVATIONS...

CITY           SKY/WX    TMP DP  RH WIND       PRES   REMARKS
GOODLAND KS    CLEAR     58  50  75 S9        30.24S
HILL CITY KS   CLEAR     59  53  80 E3        30.23S
IMPERIAL NEB   CLEAR     61  51  70 SE12      30.21S
MCCOOK NEB     CLEAR     61  54  77 SE7       30.21S
AKRON CO       CLOUDY    64  53  67 S17G25    30.21F
BURLINGTON CO  CLEAR     62  55  77 S12       30.25F
LIMON CO       CLEAR     59  56  89 S12       30.29F
$$

...UNOFFICIAL OBSERVATIONS...

CITY           SKY/WX    TMP DP  RH WIND       PRES   REMARKS
LENORA KS        N/A     61  32  33 SE5         N/A
NORTON KS      CLEAR     57  48  72 E5        30.22S
TRENTON NEB      N/A     59  32  36 S5          N/A
KIT CARSON CO    N/A     61  55  81 CALM        N/A
YUMA CO        FAIR      59  45  58 SE8       30.22S
$$



USA.gov is the U.S. government's official web portal to all federal, state and local government web resources and services.